PDT,Max TemperatureF,Mean TemperatureF,Min TemperatureF,Max Dew PointF,MeanDew PointF,Min DewpointF,Max Humidity, Mean Humidity, Min Humidity, Max Sea Level PressureIn, Mean Sea Level PressureIn, Min Sea Level PressureIn, Max VisibilityMiles, Mean VisibilityMiles, Min VisibilityMiles, Max Wind SpeedMPH, Mean Wind SpeedMPH, Max Gust SpeedMPH,PrecipitationIn, CloudCover, Events, WindDirDegrees
2013-8-1,80,71,62,41,34,27,40,26,17,30.10,30.06,30.02,10,10,10,12,7,17,0.00,0,,192
2013-8-2,84,73,62,39,31,18,35,21,14,30.03,30.00,29.98,10,10,10,13,7,16,0.00,0,,175
2013-8-3,86,75,64,39,37,32,37,26,15,30.03,30.01,29.98,10,10,9,9,6,,0.00,1,,172
2013-8-4,86,76,66,41,37,30,35,26,15,30.06,30.03,30.00,10,10,10,9,4,16,0.00,2,,199
2013-8-5,86,76,66,41,38,34,37,27,15,30.08,30.04,30.01,10,10,10,10,2,,0.00,1,,227
2013-8-6,84,73,59,46,40,37,63,32,20,30.07,30.04,30.01,10,10,9,10,2,,0.00,1,,222
2013-8-7,75,65,55,52,48,45,77,55,34,30.13,30.09,30.06,10,10,10,8,2,,0.00,2,,196
2013-8-8,78,68,57,50,44,39,72,45,26,30.08,30.03,29.99,10,10,10,9,1,,0.00,1,,237
2013-8-9,78,68,59,48,44,39,59,43,26,30.03,29.99,29.95,10,10,10,12,2,20,0.00,3,,221
2013-8-10,80,70,59,50,43,39,63,40,23,30.08,30.06,30.02,10,10,10,10,4,16,0.00,2,,188
2013-8-11,82,72,62,46,41,37,55,34,21,30.07,30.05,30.01,10,10,10,9,3,,0.00,0,,228
2013-8-12,86,75,64,45,39,36,49,31,18,30.07,30.04,30.01,10,10,10,12,6,17,0.00,1,,165
2013-8-13,89,78,66,41,38,36,37,25,15,30.08,30.05,30.02,10,10,10,10,7,,0.00,0,,143
2013-8-14,89,78,68,41,37,30,35,24,12,30.06,30.03,30.00,10,10,10,10,6,16,0.00,0,,161
2013-8-15,89,78,68,46,37,30,40,24,12,30.06,30.03,29.99,10,10,10,13,7,17,0.00,0,,167
2013-8-16,93,80,68,48,34,19,38,21,10,30.09,30.06,30.03,10,10,10,12,7,20,0.00,0,,168
2013-8-17,91,80,68,54,39,32,53,25,13,30.07,30.02,29.96,10,10,10,13,5,22,0.00,0,,214
2013-8-18,93,82,71,50,44,39,34,26,19,30.00,29.97,29.93,10,10,9,12,6,,0.00,3,,77
2013-8-19,93,86,77,50,45,39,36,25,15,30.04,29.98,29.92,10,10,10,12,5,,0.00,2,,101
2013-8-20,91,80,69,55,51,46,56,36,23,29.99,29.95,29.92,10,10,10,9,5,,0.00,2,,206
2013-8-21,86,77,68,54,46,39,60,35,19,30.00,29.97,29.94,10,10,10,9,5,,0.00,3,,197
2013-8-22,86,76,66,46,42,37,46,31,19,30.02,29.98,29.95,10,10,9,10,4,18,0.00,2,,193
2013-8-23,84,74,64,45,40,37,43,32,19,29.97,29.93,29.89,10,9,4,9,4,16,0.00,2,,184
2013-8-24,82,73,62,50,43,37,59,37,20,29.96,29.93,29.89,10,8,2,14,7,21,0.00,0,,170
2013-8-25,80,70,59,54,48,45,72,47,28,30.02,29.99,29.95,10,10,10,13,6,17,0.00,1,,192
2013-8-26,82,70,59,54,48,39,82,48,28,30.05,30.02,29.99,10,10,4,9,3,,0.00,1,,222
2013-8-27,86,76,66,46,43,37,49,32,20,29.98,29.95,29.91,10,8,1,10,6,,0.00,2,,171
2013-8-28,86,76,66,48,42,30,52,31,18,30.02,29.97,29.91,10,10,5,12,4,17,0.00,3,,172
2013-8-29,86,76,66,46,43,39,46,33,20,30.13,30.09,30.02,10,10,10,12,5,,0.00,1,,166
2013-8-30,89,78,68,45,40,37,40,26,16,30.13,30.09,30.04,10,10,10,9,6,17,0.00,0,,117
2013-8-31,89,80,71,43,41,37,35,26,18,30.07,30.03,30.00,10,10,9,9,6,16,0.00,0,,177